Weather History for Rome, NY

Change the Weather History Date:

Tuesday, October 25, 2011

  Actual Average Record
Temperature  
Mean Temperature 43 °F -  
Max Temperature 54 °F 54 °F 76 °F (1991)
Min Temperature 35 °F 34 °F 25 °F (1981)
Degree Days  
Heating Degree Days 22    
Moisture  
Dew Point 38 °F    
Average Humidity 84    
Maximum Humidity 100    
Minimum Humidity 52    
Precipitation  
Precipitation 0.00 in - - ()
Sea Level Pressure  
Sea Level Pressure 30.02 in    
Wind  
Wind Speed 3 mph (WNW)    
Max Wind Speed 18 mph    
Max Gust Speed 29 mph    
Visibility 7 miles    
Events Fog    
Averages and records for this station are not official NWS values.
T = Trace of Precipitation, MM = Missing Value Source: NWS Daily Summary

Daily Weather History Graph

Daily Weather History Graph

Search for Another Location

Airport:

Trip Planner

Search our weather history database for the weather conditions in past years. The results will help you decide how hot, cold, wet, or windy it might be!

Date:

Astronomy

Oct. 25, 2011 Rise Set
Actual Time 7:27 AM EDT 6:03 PM EDT
Civil Twilight 6:58 AM EDT 6:32 PM EDT
Nautical Twilight 6:24 AM EDT 7:05 PM EDT
Astronomical Twilight 5:51 AM EDT 7:38 PM EDT
Moon 5:55 AM EDT (10/25) 5:03 PM EDT (10/25)
Length of Visible Light 11h 34m
Length of Day
10h 36m
Waning Crescent, 2% of the Moon is Illuminated
Oct 25
Waning Crescent
Oct 26
New
Nov 2
First Quarter
Nov 10
Full
Nov 18
Last Quarter

Hourly Weather History & Observations

Time (EDT) Temp. Windchill Dew Point Humidity Pressure Visibility Wind Dir Wind Speed Gust Speed Precip Events Conditions
12:27 AM 42.8 °F - 41.0 °F 93% 29.97 in 1.8 mi Calm Calm - N/A   Clear
12:35 AM 39.2 °F - 39.2 °F 100% 29.97 in 1.5 mi Calm Calm - N/A   Partly Cloudy
12:53 AM 39.9 °F - 39.9 °F 100% 29.97 in 1.2 mi Calm Calm - N/A   Partly Cloudy
1:00 AM 39.2 °F - 39.2 °F 100% 29.97 in 1.0 mi Calm Calm - N/A   Mist
1:12 AM 39.2 °F - 39.2 °F 100% 29.97 in 4.0 mi Calm Calm - N/A   Clear
1:20 AM 37.4 °F - 37.4 °F 100% 29.97 in 1.5 mi Calm Calm - N/A   Partly Cloudy
1:23 AM 39.2 °F - 37.4 °F 93% 29.97 in 0.8 mi Calm Calm - N/A   Mist
1:24 AM - - - N/A% - - North - - N/A   Unknown
1:53 AM 37.0 °F 34.5 °F 37.0 °F 100% 29.97 in 0.8 mi North 3.5 mph - N/A   Mist
2:16 AM 35.6 °F - 35.6 °F 100% 29.97 in 0.2 mi Calm Calm - N/A Fog Fog
2:42 AM 37.4 °F - 35.6 °F 93% 29.97 in 0.5 mi Calm Calm - N/A Fog Fog
3:03 AM 37.4 °F - 37.4 °F 100% 29.98 in 1.0 mi Calm Calm - N/A   Mostly Cloudy
3:16 AM 37.4 °F - 37.4 °F 100% 29.98 in 3.0 mi Calm Calm - N/A   Mostly Cloudy
3:38 AM 39.2 °F - 37.4 °F 93% 29.98 in 5.0 mi Calm Calm - N/A   Overcast
3:53 AM 37.9 °F - 37.0 °F 97% 29.99 in 6.0 mi Calm Calm - N/A   Overcast
4:53 AM 42.1 °F 40.2 °F 41.0 °F 96% 30.00 in 10.0 mi NW 3.5 mph - N/A   Overcast
5:53 AM 46.9 °F - 41.0 °F 80% 30.01 in 10.0 mi West 10.4 mph - N/A   Overcast
6:53 AM 46.0 °F 40.2 °F 39.0 °F 76% 30.04 in 10.0 mi WNW 12.7 mph - N/A   Overcast
8:53 AM 46.9 °F - 39.0 °F 74% 30.07 in 10.0 mi West 10.4 mph - N/A   Overcast
9:53 AM 48.0 °F - 39.9 °F 74% 30.08 in 10.0 mi West 11.5 mph - N/A   Mostly Cloudy
10:53 AM 50.0 °F - 39.0 °F 66% 30.07 in 10.0 mi West 11.5 mph - N/A   Mostly Cloudy
11:53 AM 48.9 °F - 39.0 °F 69% 30.08 in 10.0 mi West 13.8 mph - N/A   Overcast
12:53 PM 50.0 °F - 39.0 °F 66% 30.07 in 10.0 mi West 11.5 mph - N/A   Overcast
1:53 PM 51.1 °F - 37.0 °F 59% 30.05 in 10.0 mi West 15.0 mph - N/A   Mostly Cloudy
2:53 PM 51.1 °F - 35.1 °F 54% 30.05 in 10.0 mi WNW 18.4 mph 28.8 mph N/A   Mostly Cloudy
3:53 PM 51.1 °F - 35.1 °F 54% 30.05 in 10.0 mi West 18.4 mph - N/A   Partly Cloudy
4:53 PM 51.1 °F - 34.0 °F 52% 30.06 in 10.0 mi West 18.4 mph 24.2 mph N/A   Clear
5:53 PM 46.9 °F - 35.1 °F 63% 30.06 in 10.0 mi NW 9.2 mph - N/A   Clear
6:53 PM 43.0 °F 40.3 °F 35.1 °F 74% 30.08 in 10.0 mi WNW 4.6 mph - N/A   Clear
7:53 PM 42.1 °F - 36.0 °F 79% 30.07 in 10.0 mi Calm Calm - N/A   Clear
9:53 PM 39.0 °F - 36.0 °F 89% 30.06 in 10.0 mi Calm Calm - N/A   Overcast
10:53 PM 41.0 °F - 37.9 °F 89% 30.06 in 10.0 mi Calm Calm - N/A   Overcast
11:30 PM 42.8 °F - 39.2 °F 87% 30.05 in 10.0 mi Calm Calm - N/A   Overcast
11:53 PM 42.1 °F - 39.0 °F 89% 30.05 in 10.0 mi Calm Calm - 0.00 in   Overcast